| time (UTC) | temp C | wind direction | speed KPH | gust KPH | rain 1hr cm | rain 24hr cm | rain mn cm | humidity % | barometer mb |
| 20260510122736 | 17 | 6 | 4.8 | 8.0 | 0.00 | 0.00 | 0.00 | 41 | 1008.6 |
| 20260510122232 | 15 | 173 | 0.0 | 1.6 | 0.00 | 0.00 | 0.00 | 44 | 1008.5 |
| 20260510121728 | 15 | 90 | 0.0 | 0.0 | 0.00 | 0.00 | 0.00 | 46 | 1008.4 |
| 20260510121226 | 15 | 90 | 0.0 | 1.6 | 0.00 | 0.00 | 0.00 | 47 | 1008.4 |
| 20260510120724 | 15 | 55 | 0.0 | 4.8 | 0.00 | 0.00 | 0.00 | 48 | 1008.3 |
| 20260510120220 | 15 | 354 | 0.0 | 1.6 | 0.00 | 0.00 | 0.00 | 48 | 1008.2 |
| 20260510115716 | 16 | 40 | 0.0 | 3.2 | 0.00 | 0.00 | 0.00 | 44 | 1008.0 |
| 20260510115214 | 16 | 270 | 0.0 | 4.8 | 0.00 | 0.00 | 0.00 | 44 | 1007.9 |
| 20260510114709 | 15 | 195 | 0.0 | 3.2 | 0.00 | 0.00 | 0.00 | 46 | 1007.7 |
| 20260510114206 | 15 | 90 | 0.0 | 1.6 | 0.00 | 0.00 | 0.00 | 48 | 1007.9 |
| 20260510113701 | 15 | 0 | 0.0 | 6.4 | 0.00 | 0.00 | 0.00 | 51 | 1007.8 |
| 20260510113159 | 15 | 23 | 4.8 | 4.8 | 0.00 | 0.00 | 0.00 | 51 | 1007.5 |
| 20260510112655 | 15 | 75 | 0.0 | 1.6 | 0.00 | 0.00 | 0.00 | 51 | 1007.6 |
| 20260510112152 | 15 | 114 | 0.0 | 3.2 | 0.00 | 0.00 | 0.00 | 50 | 1007.6 |
| 20260510111648 | 15 | 54 | 0.0 | 3.2 | 0.00 | 0.00 | 0.00 | 50 | 1007.6 |
| 20260510111145 | 14 | 29 | 3.2 | 6.4 | 0.00 | 0.00 | 0.00 | 51 | 1007.8 |
| 20260510110639 | 15 | 90 | 0.0 | 6.4 | 0.00 | 0.00 | 0.00 | 49 | 1007.5 |
| 20260510110137 | 16 | 8 | 0.0 | 4.8 | 0.00 | 0.00 | 0.00 | 45 | 1007.3 |
| 20260510105633 | 16 | 241 | 0.0 | 0.0 | 0.00 | 0.00 | 0.00 | 45 | 1007.6 |
| 20260510105126 | 16 | 187 | 0.0 | 6.4 | 0.00 | 0.00 | 0.00 | 45 | 1007.4 |
| 20260510104624 | 16 | 5 | 4.8 | 8.0 | 0.00 | 0.00 | 0.00 | 46 | 1007.4 |
| 20260510104120 | 15 | 90 | 0.0 | 3.2 | 0.00 | 0.00 | 0.00 | 47 | 1006.9 |
| 20260510103617 | 15 | 66 | 1.6 | 3.2 | 0.00 | 0.00 | 0.00 | 51 | 1007.2 |
| 20260510103113 | 15 | 5 | 4.8 | 6.4 | 0.00 | 0.00 | 0.00 | 50 | 1007.2 |
| 20260510102609 | 16 | 8 | 0.0 | 1.6 | 0.00 | 0.00 | 0.00 | 48 | 1007.1 |
| 20260510102105 | 16 | 3 | 3.2 | 3.2 | 0.00 | 0.00 | 0.00 | 47 | 1006.8 |
| 20260510101603 | 16 | 0 | 0.0 | 4.8 | 0.00 | 0.00 | 0.00 | 44 | 1006.9 |
| 20260510101101 | 17 | 237 | 3.2 | 3.2 | 0.00 | 0.00 | 0.00 | 42 | 1006.8 |
| 20260510100556 | 17 | 195 | 0.0 | 4.8 | 0.00 | 0.00 | 0.00 | 42 | 1006.7 |
| 20260510100054 | 17 | 159 | 0.0 | 3.2 | 0.00 | 0.00 | 0.00 | 41 | 1006.7 |
| 20260510095550 | 17 | 180 | 0.0 | 3.2 | 0.00 | 0.00 | 0.00 | 41 | 1006.7 |
| 20260510095049 | 18 | 90 | 0.0 | 1.6 | 0.00 | 0.00 | 0.00 | 39 | 1006.6 |
| 20260510094544 | 20 | 172 | 0.0 | 0.0 | 0.00 | 0.00 | 0.00 | 33 | 1006.5 |
| 20260510094040 | 20 | 126 | 0.0 | 3.2 | 0.00 | 0.00 | 0.00 | 31 | 1006.3 |
| 20260510093536 | 20 | 174 | 1.6 | 6.4 | 0.00 | 0.00 | 0.00 | 30 | 1006.4 |
| 20260510093033 | 20 | 237 | 3.2 | 4.8 | 0.00 | 0.00 | 0.00 | 30 | 1006.5 |
| 20260510092530 | 21 | 157 | 0.0 | 3.2 | 0.00 | 0.00 | 0.00 | 30 | 1006.3 |
| 20260510092030 | 21 | 180 | 0.0 | 4.8 | 0.00 | 0.00 | 0.00 | 28 | 1006.3 |
| 20260510091527 | 20 | 191 | 0.0 | 3.2 | 0.00 | 0.00 | 0.00 | 31 | 1006.5 |
| 20260510091022 | 20 | 154 | 4.8 | 4.8 | 0.00 | 0.00 | 0.00 | 33 | 1006.8 |
| 20260510090520 | 20 | 188 | 0.0 | 8.0 | 0.00 | 0.00 | 0.00 | 32 | 1006.4 |
| 20260510090015 | 18 | 220 | 3.2 | 3.2 | 0.00 | 0.00 | 0.00 | 36 | 1006.7 |
| 20260510085510 | 18 | 289 | 0.0 | 3.2 | 0.00 | 0.00 | 0.00 | 37 | 1006.9 |
| 20260510085006 | 18 | 6 | 0.0 | 1.6 | 0.00 | 0.00 | 0.00 | 39 | 1006.5 |
| 20260510084503 | 18 | 294 | 0.0 | 4.8 | 0.00 | 0.00 | 0.00 | 36 | 1006.7 |
| 20260510084000 | 18 | 311 | 0.0 | 6.4 | 0.00 | 0.00 | 0.00 | 39 | 1006.4 |
| 20260510083456 | 18 | 0 | 0.0 | 0.0 | 0.00 | 0.00 | 0.00 | 37 | 1006.3 |
| 20260510082951 | 18 | 14 | 1.6 | 4.8 | 0.00 | 0.00 | 0.00 | 37 | 1006.6 |
| 20260510082450 | 18 | 0 | 0.0 | 1.6 | 0.00 | 0.00 | 0.00 | 35 | 1006.2 |
| 20260510081949 | 19 | 157 | 0.0 | 3.2 | 0.00 | 0.00 | 0.00 | 34 | 1006.4 |
| 20260510081445 | 18 | 36 | 0.0 | 3.2 | 0.00 | 0.00 | 0.00 | 35 | 1006.6 |
| 20260510080941 | 19 | 21 | 3.2 | 4.8 | 0.00 | 0.00 | 0.00 | 36 | 1006.5 |
| 20260510080440 | 18 | 25 | 4.8 | 8.0 | 0.00 | 0.00 | 0.00 | 35 | 1006.8 |
| 20260510075937 | 18 | 345 | 3.2 | 3.2 | 0.00 | 0.00 | 0.00 | 35 | 1006.6 |
| 20260510075435 | 18 | 37 | 3.2 | 4.8 | 0.00 | 0.00 | 0.00 | 36 | 1006.8 |
| 20260510074931 | 19 | 32 | 4.8 | 4.8 | 0.00 | 0.00 | 0.00 | 34 | 1006.8 |
| 20260510074429 | 20 | 145 | 0.0 | 1.6 | 0.00 | 0.00 | 0.00 | 33 | 1006.6 |
| 20260510073925 | 20 | 94 | 4.8 | 4.8 | 0.00 | 0.00 | 0.00 | 34 | 1006.7 |
| 20260510073420 | 20 | 41 | 0.0 | 4.8 | 0.00 | 0.00 | 0.00 | 33 | 1006.9 |
| 20260510072917 | 20 | 38 | 3.2 | 6.4 | 0.00 | 0.00 | 0.00 | 34 | 1006.9 |
| 20260510072414 | 20 | 49 | 9.7 | 9.7 | 0.00 | 0.00 | 0.00 | 35 | 1007.4 |
| 20260510071909 | 19 | 53 | 4.8 | 8.0 | 0.00 | 0.00 | 0.00 | 35 | 1007.4 |
| 20260510071406 | 19 | 22 | 9.7 | 11.3 | 0.00 | 0.00 | 0.00 | 36 | 1007.4 |
| 20260510070905 | 19 | 17 | 8.0 | 8.0 | 0.00 | 0.00 | 0.00 | 36 | 1006.8 |
| 20260510070401 | 20 | 27 | 9.7 | 12.9 | 0.00 | 0.00 | 0.00 | 34 | 1006.8 |
| 20260510065856 | 20 | 36 | 4.8 | 8.0 | 0.00 | 0.00 | 0.00 | 33 | 1006.5 |
| 20260510065353 | 22 | 353 | 1.6 | 4.8 | 0.00 | 0.00 | 0.00 | 25 | 1006.3 |
| 20260510064850 | 22 | 81 | 0.0 | 1.6 | 0.00 | 0.00 | 0.00 | 24 | 1006.4 |
| 20260510064348 | 22 | 352 | 0.0 | 3.2 | 0.00 | 0.00 | 0.00 | 25 | 1006.6 |
| 20260510063844 | 21 | 286 | 0.0 | 0.0 | 0.00 | 0.00 | 0.00 | 26 | 1006.4 |
| 20260510063340 | 22 | 286 | 0.0 | 0.0 | 0.00 | 0.00 | 0.00 | 26 | 1006.7 |
| 20260510062837 | 23 | 0 | 0.0 | 4.8 | 0.00 | 0.00 | 0.00 | 23 | 1006.4 |
| 20260510062332 | 22 | 354 | 4.8 | 6.4 | 0.00 | 0.00 | 0.00 | 24 | 1006.6 |
| 20260510061828 | 21 | 21 | 3.2 | 6.4 | 0.00 | 0.00 | 0.00 | 26 | 1006.6 |
| 20260510061325 | 22 | 261 | 0.0 | 0.0 | 0.00 | 0.00 | 0.00 | 26 | 1006.6 |
| 20260510060821 | 22 | 14 | 3.2 | 3.2 | 0.00 | 0.00 | 0.00 | 25 | 1006.6 |
| 20260510060318 | 22 | 68 | 3.2 | 3.2 | 0.00 | 0.00 | 0.00 | 24 | 1006.9 |
| 20260510055815 | 21 | 14 | 0.0 | 4.8 | 0.00 | 0.00 | 0.00 | 26 | 1006.8 |
| 20260510055314 | 21 | 54 | 1.6 | 3.2 | 0.00 | 0.00 | 0.00 | 27 | 1006.8 |
| 20260510054813 | 21 | 354 | 4.8 | 4.8 | 0.00 | 0.00 | 0.00 | 27 | 1006.6 |
| 20260510054310 | 20 | 30 | 3.2 | 3.2 | 0.00 | 0.00 | 0.00 | 29 | 1006.6 |
| 20260510053809 | 20 | 0 | 1.6 | 1.6 | 0.00 | 0.00 | 0.00 | 30 | 1006.6 |
| 20260510053300 | 20 | 23 | 3.2 | 4.8 | 0.00 | 0.00 | 0.00 | 30 | 1006.5 |
| 20260510052756 | 20 | 26 | 3.2 | 3.2 | 0.00 | 0.00 | 0.00 | 30 | 1006.6 |
| 20260510052252 | 20 | 69 | 0.0 | 3.2 | 0.00 | 0.00 | 0.00 | 30 | 1006.6 |
| 20260510051748 | 20 | 99 | 3.2 | 3.2 | 0.00 | 0.00 | 0.00 | 30 | 1006.6 |
| 20260510051245 | 20 | 188 | 0.0 | 6.4 | 0.00 | 0.00 | 0.00 | 31 | 1006.5 |
| 20260510050742 | 20 | 157 | 0.0 | 4.8 | 0.00 | 0.00 | 0.00 | 29 | 1006.4 |
| 20260510050239 | 21 | 139 | 3.2 | 4.8 | 0.00 | 0.00 | 0.00 | 28 | 1006.6 |
| 20260510045736 | 20 | 78 | 0.0 | 4.8 | 0.00 | 0.00 | 0.00 | 28 | 1006.6 |
| 20260510045232 | 21 | 20 | 0.0 | 3.2 | 0.00 | 0.00 | 0.00 | 27 | 1006.6 |
| 20260510044728 | 21 | 90 | 3.2 | 3.2 | 0.00 | 0.00 | 0.00 | 27 | 1006.6 |
| 20260510044227 | 22 | 74 | 0.0 | 4.8 | 0.00 | 0.00 | 0.00 | 25 | 1006.6 |
| 20260510043721 | 23 | 257 | 3.2 | 4.8 | 0.00 | 0.00 | 0.00 | 22 | 1006.6 |
| 20260510043219 | 24 | 233 | 4.8 | 11.3 | 0.00 | 0.00 | 0.00 | 21 | 1006.4 |
| 20260510042716 | 24 | 241 | 8.0 | 9.7 | 0.00 | 0.00 | 0.00 | 21 | 1006.2 |
| 20260510042212 | 24 | 219 | 6.4 | 9.7 | 0.00 | 0.00 | 0.00 | 22 | 1006.5 |
| 20260510041709 | 23 | 222 | 4.8 | 9.7 | 0.00 | 0.00 | 0.00 | 22 | 1006.3 |
| 20260510041207 | 23 | 236 | 6.4 | 9.7 | 0.00 | 0.00 | 0.00 | 22 | 1006.4 |
| 20260510040703 | 23 | 229 | 4.8 | 8.0 | 0.00 | 0.00 | 0.00 | 23 | 1006.4 |
| 20260510040200 | 23 | 233 | 9.7 | 9.7 | 0.00 | 0.00 | 0.00 | 23 | 1006.5 |
| 20260510035655 | 23 | 247 | 6.4 | 6.4 | 0.00 | 0.00 | 0.00 | 23 | 1006.4 |
| 20260510035151 | 23 | 256 | 4.8 | 8.0 | 0.00 | 0.00 | 0.00 | 23 | 1006.3 |
| 20260510034647 | 23 | 249 | 6.4 | 9.7 | 0.00 | 0.00 | 0.00 | 23 | 1006.1 |
| 20260510034145 | 23 | 235 | 4.8 | 8.0 | 0.00 | 0.00 | 0.00 | 23 | 1006.2 |
| 20260510033641 | 23 | 231 | 8.0 | 8.0 | 0.00 | 0.00 | 0.00 | 22 | 1005.9 |
| 20260510033139 | 24 | 261 | 8.0 | 8.0 | 0.00 | 0.00 | 0.00 | 22 | 1006.0 |
| 20260510032635 | 24 | 270 | 3.2 | 4.8 | 0.00 | 0.00 | 0.00 | 22 | 1005.9 |
| 20260510032131 | 24 | 237 | 4.8 | 6.4 | 0.00 | 0.00 | 0.00 | 23 | 1006.1 |
| 20260510031626 | 24 | 250 | 3.2 | 4.8 | 0.00 | 0.00 | 0.00 | 23 | 1006.0 |
| 20260510031123 | 24 | 248 | 3.2 | 4.8 | 0.00 | 0.00 | 0.00 | 23 | 1005.9 |
| 20260510030617 | 25 | 232 | 3.2 | 4.8 | 0.00 | 0.00 | 0.00 | 23 | 1006.0 |
| 20260510030115 | 25 | 228 | 0.0 | 4.8 | 0.00 | 0.00 | 0.00 | 22 | 1005.7 |
| 20260510025612 | 25 | 263 | 1.6 | 3.2 | 0.00 | 0.00 | 0.00 | 21 | 1005.6 |
| 20260510025109 | 25 | 264 | 0.0 | 3.2 | 0.00 | 0.00 | 0.00 | 22 | 1005.6 |
| 20260510024606 | 26 | 270 | 0.0 | 3.2 | 0.00 | 0.00 | 0.00 | 21 | 1005.7 |
| 20260510024103 | 26 | 253 | 0.0 | 3.2 | 0.00 | 0.00 | 0.00 | 20 | 1005.5 |
| 20260510023559 | 27 | 212 | 3.2 | 4.8 | 0.00 | 0.00 | 0.00 | 19 | 1005.3 |
| 20260510023056 | 27 | 220 | 3.2 | 4.8 | 0.00 | 0.00 | 0.00 | 19 | 1005.3 |
| 20260510022555 | 27 | 180 | 0.0 | 3.2 | 0.00 | 0.00 | 0.00 | 21 | 1005.3 |
| 20260510022050 | 27 | 216 | 0.0 | 3.2 | 0.00 | 0.00 | 0.00 | 20 | 1005.3 |
| 20260510021546 | 27 | 195 | 0.0 | 3.2 | 0.00 | 0.00 | 0.00 | 21 | 1005.2 |
| 20260510021044 | 27 | 140 | 3.2 | 3.2 | 0.00 | 0.00 | 0.00 | 22 | 1005.2 |
| 20260510020538 | 28 | 187 | 0.0 | 3.2 | 0.00 | 0.00 | 0.00 | 21 | 1005.0 |
| 20260510020034 | 28 | 186 | 4.8 | 4.8 | 0.00 | 0.00 | 0.00 | 21 | 1005.1 |
| 20260510015530 | 28 | 184 | 3.2 | 4.8 | 0.00 | 0.00 | 0.00 | 20 | 1004.9 |
| 20260510015026 | 28 | 180 | 1.6 | 3.2 | 0.00 | 0.00 | 0.00 | 20 | 1004.9 |
| 20260510014523 | 29 | 166 | 0.0 | 4.8 | 0.00 | 0.00 | 0.00 | 18 | 1004.9 |
| 20260510014020 | 30 | 194 | 1.6 | 4.8 | 0.00 | 0.00 | 0.00 | 16 | 1004.8 |
| 20260510013514 | 30 | 163 | 6.4 | 8.0 | 0.00 | 0.00 | 0.00 | 16 | 1004.8 |
| 20260510013010 | 30 | 164 | 4.8 | 4.8 | 0.00 | 0.00 | 0.00 | 16 | 1004.5 |
| 20260510012505 | 30 | 180 | 0.0 | 8.0 | 0.00 | 0.00 | 0.00 | 17 | 1004.5 |
| 20260510012001 | 31 | 176 | 9.7 | 9.7 | 0.00 | 0.00 | 0.00 | 16 | 1004.4 |
| 20260510011455 | 31 | 170 | 9.7 | 9.7 | 0.00 | 0.00 | 0.00 | 16 | 1004.4 |
| 20260510010951 | 31 | 154 | 4.8 | 8.0 | 0.00 | 0.00 | 0.00 | 15 | 1004.5 |
| 20260510010449 | 32 | 173 | 6.4 | 8.0 | 0.00 | 0.00 | 0.00 | 15 | 1004.7 |
| 20260510005946 | 32 | 154 | 4.8 | 6.4 | 0.00 | 0.00 | 0.00 | 15 | 1004.5 |
| 20260510005441 | 32 | 156 | 6.4 | 8.0 | 0.00 | 0.00 | 0.00 | 15 | 1004.5 |
| 20260510004939 | 32 | 160 | 1.6 | 6.4 | 0.00 | 0.00 | 0.00 | 14 | 1004.5 |
| 20260510004436 | 32 | 151 | 1.6 | 8.0 | 0.00 | 0.00 | 0.00 | 14 | 1004.8 |
| 20260510003934 | 33 | 213 | 3.2 | 9.7 | 0.00 | 0.00 | 0.00 | 14 | 1004.4 |
| 20260510003431 | 33 | 198 | 3.2 | 4.8 | 0.00 | 0.00 | 0.00 | 13 | 1004.7 |
| 20260510002930 | 33 | 157 | 4.8 | 11.3 | 0.00 | 0.00 | 0.00 | 13 | 1004.8 |
| 20260510002427 | 33 | 160 | 8.0 | 9.7 | 0.00 | 0.00 | 0.00 | 12 | 1004.8 |
| 20260510001924 | 35 | 169 | 0.0 | 4.8 | 0.00 | 0.00 | 0.00 | 12 | 1004.4 |
| 20260510001421 | 34 | 252 | 6.4 | 11.3 | 0.00 | 0.00 | 0.00 | 11 | 1004.7 |
| 20260510000919 | 35 | 169 | 4.8 | 6.4 | 0.00 | 0.00 | 0.00 | 11 | 1004.7 |
| 20260510000415 | 34 | 258 | 0.0 | 9.7 | 0.00 | 0.00 | 0.00 | 11 | 1004.7 |
| 20260509235912 | 35 | 229 | 4.8 | 8.0 | 0.00 | 0.00 | 0.00 | 11 | 1005.0 |
| 20260509235409 | 35 | 257 | 3.2 | 6.4 | 0.00 | 0.00 | 0.00 | 11 | 1005.0 |
| 20260509234904 | 35 | 257 | 1.6 | 11.3 | 0.00 | 0.00 | 0.00 | 11 | 1004.9 |
| 20260509234402 | 35 | 259 | 4.8 | 9.7 | 0.00 | 0.00 | 0.00 | 11 | 1005.0 |
| 20260509233859 | 35 | 306 | 3.2 | 9.7 | 0.00 | 0.00 | 0.00 | 11 | 1004.8 |
| 20260509233357 | 35 | 236 | 4.8 | 4.8 | 0.00 | 0.00 | 0.00 | 10 | 1005.1 |
| 20260509232852 | 35 | 166 | 4.8 | 6.4 | 0.00 | 0.00 | 0.00 | 10 | 1005.2 |
| 20260509232351 | 35 | 265 | 0.0 | 8.0 | 0.00 | 0.00 | 0.00 | 10 | 1005.2 |
| 20260509231846 | 35 | 173 | 4.8 | 8.0 | 0.00 | 0.00 | 0.00 | 10 | 1005.0 |
| 20260509231343 | 35 | 260 | 6.4 | 17.7 | 0.00 | 0.00 | 0.00 | 10 | 1005.0 |
| 20260509230841 | 35 | 334 | 0.0 | 8.0 | 0.00 | 0.00 | 0.00 | 10 | 1005.2 |
| 20260509230338 | 35 | 212 | 6.4 | 14.5 | 0.00 | 0.00 | 0.00 | 10 | 1005.2 |
| 20260509225833 | 37 | 290 | 6.4 | 6.4 | 0.00 | 0.00 | 0.00 | 10 | 1005.5 |
| 20260509225330 | 36 | 237 | 3.2 | 4.8 | 0.00 | 0.00 | 0.00 | 10 | 1005.3 |
| 20260509224826 | 35 | 247 | 3.2 | 11.3 | 0.00 | 0.00 | 0.00 | 10 | 1005.6 |
| 20260509224322 | 36 | 266 | 3.2 | 9.7 | 0.00 | 0.00 | 0.00 | 10 | 1005.4 |
| 20260509223819 | 35 | 276 | 9.7 | 16.1 | 0.00 | 0.00 | 0.00 | 10 | 1005.3 |
| 20260509223316 | 35 | 300 | 0.0 | 12.9 | 0.00 | 0.00 | 0.00 | 10 | 1005.2 |
| 20260509222813 | 36 | 209 | 1.6 | 14.5 | 0.00 | 0.00 | 0.00 | 10 | 1005.4 |
| 20260509222308 | 36 | 194 | 1.6 | 11.3 | 0.00 | 0.00 | 0.00 | 10 | 1005.5 |
| 20260509221804 | 35 | 277 | 9.7 | 9.7 | 0.00 | 0.00 | 0.00 | 10 | 1005.6 |
| 20260509221302 | 34 | 266 | 4.8 | 12.9 | 0.00 | 0.00 | 0.00 | 10 | 1005.6 |
| 20260509220756 | 35 | 252 | 6.4 | 11.3 | 0.00 | 0.00 | 0.00 | 10 | 1005.9 |
| 20260509220253 | 34 | 152 | 8.0 | 16.1 | 0.00 | 0.00 | 0.00 | 11 | 1005.9 |
| 20260509215748 | 34 | 355 | 4.8 | 17.7 | 0.00 | 0.00 | 0.00 | 11 | 1005.6 |
| 20260509215245 | 35 | 209 | 3.2 | 9.7 | 0.00 | 0.00 | 0.00 | 10 | 1006.0 |
| 20260509214742 | 36 | 216 | 3.2 | 4.8 | 0.00 | 0.00 | 0.00 | 10 | 1006.0 |
| 20260509214239 | 36 | 337 | 4.8 | 4.8 | 0.00 | 0.00 | 0.00 | 10 | 1005.9 |
| 20260509213736 | 35 | 270 | 1.6 | 8.0 | 0.00 | 0.00 | 0.00 | 11 | 1006.2 |
| 20260509213232 | 34 | 297 | 3.2 | 6.4 | 0.00 | 0.00 | 0.00 | 11 | 1006.2 |
| 20260509212730 | 35 | 291 | 4.8 | 9.7 | 0.00 | 0.00 | 0.00 | 11 | 1006.3 |
| 20260509212227 | 35 | 204 | 3.2 | 9.7 | 0.00 | 0.00 | 0.00 | 11 | 1006.6 |
| 20260509211722 | 35 | 142 | 3.2 | 8.0 | 0.00 | 0.00 | 0.00 | 12 | 1006.5 |
| 20260509211219 | 35 | 109 | 0.0 | 9.7 | 0.00 | 0.00 | 0.00 | 11 | 1006.3 |
| 20260509210715 | 33 | 169 | 3.2 | 3.2 | 0.00 | 0.00 | 0.00 | 12 | 1006.3 |
| 20260509210213 | 33 | 95 | 0.0 | 6.4 | 0.00 | 0.00 | 0.00 | 13 | 1006.6 |
| 20260509205713 | 33 | 113 | 0.0 | 6.4 | 0.00 | 0.00 | 0.00 | 13 | 1006.8 |
| 20260509205212 | 34 | 90 | 0.0 | 4.8 | 0.00 | 0.00 | 0.00 | 13 | 1006.7 |
| 20260509204709 | 34 | 37 | 3.2 | 4.8 | 0.00 | 0.00 | 0.00 | 12 | 1006.9 |
| 20260509204205 | 35 | 90 | 8.0 | 12.9 | 0.00 | 0.00 | 0.00 | 12 | 1007.1 |
| 20260509203701 | 35 | 342 | 3.2 | 4.8 | 0.00 | 0.00 | 0.00 | 12 | 1006.9 |
| 20260509203200 | 34 | 12 | 0.0 | 11.3 | 0.00 | 0.00 | 0.00 | 11 | 1007.1 |
| 20260509202655 | 34 | 20 | 4.8 | 9.7 | 0.00 | 0.00 | 0.00 | 11 | 1007.1 |
| 20260509202150 | 34 | 27 | 4.8 | 8.0 | 0.00 | 0.00 | 0.00 | 11 | 1007.3 |
| 20260509201646 | 35 | 52 | 4.8 | 8.0 | 0.00 | 0.00 | 0.00 | 11 | 1007.5 |
| 20260509201143 | 34 | 226 | 8.0 | 8.0 | 0.00 | 0.00 | 0.00 | 12 | 1007.5 |
| 20260509200639 | 35 | 213 | 9.7 | 11.3 | 0.00 | 0.00 | 0.00 | 12 | 1007.5 |
| 20260509200134 | 34 | 113 | 4.8 | 12.9 | 0.00 | 0.00 | 0.00 | 13 | 1007.5 |
| 20260509195630 | 34 | 179 | 12.9 | 17.7 | 0.00 | 0.00 | 0.00 | 13 | 1007.8 |
| 20260509195125 | 34 | 74 | 1.6 | 16.1 | 0.00 | 0.00 | 0.00 | 13 | 1007.5 |
| 20260509194625 | 33 | 169 | 6.4 | 9.7 | 0.00 | 0.00 | 0.00 | 13 | 1007.8 |
| 20260509194122 | 34 | 178 | 6.4 | 8.0 | 0.00 | 0.00 | 0.00 | 13 | 1007.8 |
| 20260509193618 | 33 | 130 | 6.4 | 8.0 | 0.00 | 0.00 | 0.00 | 13 | 1007.8 |
| 20260509193114 | 33 | 144 | 8.0 | 12.9 | 0.00 | 0.00 | 0.00 | 14 | 1007.8 |
| 20260509192611 | 34 | 142 | 8.0 | 16.1 | 0.00 | 0.00 | 0.00 | 14 | 1008.2 |
| 20260509192106 | 34 | 174 | 6.4 | 9.7 | 0.00 | 0.00 | 0.00 | 15 | 1008.2 |
| 20260509191601 | 33 | 185 | 0.0 | 6.4 | 0.00 | 0.00 | 0.00 | 14 | 1008.0 |
| 20260509191057 | 33 | 180 | 4.8 | 9.7 | 0.00 | 0.00 | 0.00 | 15 | 1008.0 |
| 20260509190554 | 32 | 169 | 9.7 | 14.5 | 0.00 | 0.00 | 0.00 | 15 | 1008.4 |
| 20260509190052 | 33 | 105 | 4.8 | 8.0 | 0.00 | 0.00 | 0.00 | 15 | 1008.6 |
| 20260509185549 | 32 | 119 | 3.2 | 9.7 | 0.00 | 0.00 | 0.00 | 15 | 1008.5 |
| 20260509185045 | 32 | 90 | 3.2 | 8.0 | 0.00 | 0.00 | 0.00 | 14 | 1008.7 |
| 20260509184543 | 32 | 207 | 4.8 | 17.7 | 0.00 | 0.00 | 0.00 | 16 | 1008.8 |
| 20260509184039 | 32 | 210 | 6.4 | 16.1 | 0.00 | 0.00 | 0.00 | 16 | 1008.7 |
| 20260509183535 | 32 | 189 | 4.8 | 14.5 | 0.00 | 0.00 | 0.00 | 15 | 1008.9 |
| 20260509183031 | 32 | 90 | 0.0 | 17.7 | 0.00 | 0.00 | 0.00 | 16 | 1009.0 |
| 20260509182527 | 31 | 217 | 4.8 | 8.0 | 0.00 | 0.00 | 0.00 | 17 | 1008.8 |
| 20260509182025 | 31 | 208 | 4.8 | 11.3 | 0.00 | 0.00 | 0.00 | 17 | 1009.0 |
| 20260509181523 | 32 | 183 | 4.8 | 8.0 | 0.00 | 0.00 | 0.00 | 18 | 1009.2 |
| 20260509181020 | 31 | 163 | 8.0 | 16.1 | 0.00 | 0.00 | 0.00 | 18 | 1009.2 |
| 20260509180515 | 31 | 226 | 6.4 | 11.3 | 0.00 | 0.00 | 0.00 | 19 | 1009.4 |
| 20260509180013 | 31 | 168 | 6.4 | 14.5 | 0.00 | 0.00 | 0.00 | 20 | 1009.5 |
| 20260509175508 | 31 | 196 | 6.4 | 16.1 | 0.00 | 0.00 | 0.00 | 21 | 1009.5 |
| 20260509175005 | 31 | 217 | 3.2 | 11.3 | 0.00 | 0.00 | 0.00 | 20 | 1009.8 |
| 20260509174502 | 30 | 273 | 0.0 | 9.7 | 0.00 | 0.00 | 0.00 | 23 | 1009.5 |
| 20260509173956 | 30 | 161 | 4.8 | 20.9 | 0.00 | 0.00 | 0.00 | 23 | 1009.6 |
| 20260509173451 | 29 | 158 | 6.4 | 17.7 | 0.00 | 0.00 | 0.00 | 23 | 1009.8 |
| 20260509172948 | 29 | 168 | 11.3 | 17.7 | 0.00 | 0.00 | 0.00 | 24 | 1009.6 |
| 20260509172445 | 29 | 208 | 4.8 | 16.1 | 0.00 | 0.00 | 0.00 | 23 | 1009.7 |
| 20260509171940 | 28 | 199 | 9.7 | 11.3 | 0.00 | 0.00 | 0.00 | 24 | 1009.8 |
| 20260509171436 | 28 | 192 | 14.5 | 24.1 | 0.00 | 0.00 | 0.00 | 24 | 1010.0 |
| 20260509170933 | 28 | 155 | 4.8 | 17.7 | 0.00 | 0.00 | 0.00 | 25 | 1009.8 |
| 20260509170429 | 28 | 163 | 3.2 | 16.1 | 0.00 | 0.00 | 0.00 | 25 | 1010.1 |
| 20260509165924 | 28 | 180 | 9.7 | 16.1 | 0.00 | 0.00 | 0.00 | 26 | 1010.0 |
| 20260509165419 | 28 | 190 | 8.0 | 11.3 | 0.00 | 0.00 | 0.00 | 27 | 1010.1 |
| 20260509164914 | 27 | 180 | 8.0 | 11.3 | 0.00 | 0.00 | 0.00 | 27 | 1010.1 |
| 20260509164411 | 27 | 177 | 11.3 | 17.7 | 0.00 | 0.00 | 0.00 | 28 | 1010.3 |
| 20260509163907 | 27 | 160 | 14.5 | 14.5 | 0.00 | 0.00 | 0.00 | 28 | 1010.2 |
| 20260509163404 | 26 | 180 | 9.7 | 12.9 | 0.00 | 0.00 | 0.00 | 29 | 1010.2 |
| 20260509162903 | 26 | 179 | 6.4 | 17.7 | 0.00 | 0.00 | 0.00 | 29 | 1010.1 |
| 20260509162402 | 26 | 140 | 3.2 | 19.3 | 0.00 | 0.00 | 0.00 | 29 | 1010.2 |
| 20260509161858 | 26 | 163 | 8.0 | 14.5 | 0.00 | 0.00 | 0.00 | 30 | 1010.2 |
| 20260509161354 | 26 | 154 | 11.3 | 12.9 | 0.00 | 0.00 | 0.00 | 30 | 1010.0 |
| 20260509160850 | 25 | 172 | 4.8 | 17.7 | 0.00 | 0.00 | 0.00 | 31 | 1010.1 |
| 20260509160346 | 25 | 180 | 12.9 | 14.5 | 0.00 | 0.00 | 0.00 | 30 | 1010.3 |
| 20260509155841 | 25 | 181 | 9.7 | 12.9 | 0.00 | 0.00 | 0.00 | 31 | 1010.6 |
| 20260509155338 | 25 | 180 | 8.0 | 14.5 | 0.00 | 0.00 | 0.00 | 31 | 1010.3 |
| 20260509154834 | 24 | 164 | 8.0 | 17.7 | 0.00 | 0.00 | 0.00 | 32 | 1010.6 |
| 20260509154331 | 24 | 169 | 6.4 | 16.1 | 0.00 | 0.00 | 0.00 | 32 | 1010.6 |
| 20260509153828 | 24 | 178 | 6.4 | 11.3 | 0.00 | 0.00 | 0.00 | 33 | 1010.4 |
| 20260509153324 | 23 | 165 | 9.7 | 17.7 | 0.00 | 0.00 | 0.00 | 34 | 1010.7 |
| 20260509152822 | 23 | 196 | 8.0 | 14.5 | 0.00 | 0.00 | 0.00 | 34 | 1010.7 |
| 20260509152317 | 23 | 191 | 4.8 | 11.3 | 0.00 | 0.00 | 0.00 | 34 | 1010.7 |
| 20260509151815 | 23 | 134 | 11.3 | 19.3 | 0.00 | 0.00 | 0.00 | 35 | 1010.7 |
| 20260509151311 | 23 | 194 | 8.0 | 12.9 | 0.00 | 0.00 | 0.00 | 35 | 1010.7 |
| 20260509150810 | 22 | 166 | 9.7 | 14.5 | 0.00 | 0.00 | 0.00 | 36 | 1011.0 |
| 20260509150307 | 22 | 173 | 4.8 | 11.3 | 0.00 | 0.00 | 0.00 | 38 | 1010.7 |
| 20260509145804 | 22 | 174 | 8.0 | 14.5 | 0.00 | 0.00 | 0.00 | 38 | 1010.7 |
| 20260509145306 | 22 | 177 | 8.0 | 11.3 | 0.00 | 0.00 | 0.00 | 38 | 1010.8 |
| 20260509144800 | 21 | 197 | 8.0 | 16.1 | 0.00 | 0.00 | 0.00 | 39 | 1010.8 |
| 20260509144257 | 21 | 163 | 9.7 | 11.3 | 0.00 | 0.00 | 0.00 | 41 | 1010.9 |
| 20260509143754 | 20 | 201 | 0.0 | 11.3 | 0.00 | 0.00 | 0.00 | 42 | 1010.7 |
| 20260509143252 | 20 | 173 | 8.0 | 12.9 | 0.00 | 0.00 | 0.00 | 43 | 1010.9 |
| 20260509142747 | 20 | 176 | 3.2 | 12.9 | 0.00 | 0.00 | 0.00 | 44 | 1011.0 |
| 20260509142244 | 19 | 155 | 8.0 | 14.5 | 0.00 | 0.00 | 0.00 | 44 | 1010.9 |
| 20260509141739 | 19 | 181 | 8.0 | 11.3 | 0.00 | 0.00 | 0.00 | 46 | 1010.9 |
| 20260509141237 | 19 | 151 | 3.2 | 4.8 | 0.00 | 0.00 | 0.00 | 47 | 1011.0 |
| 20260509140733 | 18 | 165 | 6.4 | 6.4 | 0.00 | 0.00 | 0.00 | 48 | 1011.0 |
| 20260509140231 | 18 | 157 | 1.6 | 6.4 | 0.00 | 0.00 | 0.00 | 49 | 1010.9 |
| 20260509135728 | 18 | 131 | 0.0 | 4.8 | 0.00 | 0.00 | 0.00 | 48 | 1011.2 |
| 20260509135226 | 18 | 152 | 3.2 | 4.8 | 0.00 | 0.00 | 0.00 | 48 | 1011.0 |
| 20260509134722 | 18 | 157 | 3.2 | 4.8 | 0.00 | 0.00 | 0.00 | 48 | 1011.0 |
| 20260509134220 | 18 | 90 | 1.6 | 4.8 | 0.00 | 0.00 | 0.00 | 48 | 1010.9 |
| 20260509133717 | 17 | 106 | 4.8 | 6.4 | 0.00 | 0.00 | 0.00 | 50 | 1011.0 |
| 20260509133214 | 17 | 106 | 0.0 | 4.8 | 0.00 | 0.00 | 0.00 | 52 | 1011.1 |
| 20260509132713 | 16 | 81 | 0.0 | 6.4 | 0.00 | 0.00 | 0.00 | 55 | 1010.8 |
| 20260509132211 | 15 | 51 | 3.2 | 6.4 | 0.00 | 0.00 | 0.00 | 58 | 1010.9 |
| 20260509131707 | 15 | 106 | 3.2 | 8.0 | 0.00 | 0.00 | 0.00 | 59 | 1011.0 |
| 20260509131204 | 15 | 135 | 6.4 | 6.4 | 0.00 | 0.00 | 0.00 | 58 | 1010.7 |
| 20260509130659 | 15 | 90 | 0.0 | 4.8 | 0.00 | 0.00 | 0.00 | 58 | 1010.7 |
| 20260509130156 | 15 | 108 | 4.8 | 4.8 | 0.00 | 0.00 | 0.00 | 60 | 1010.6 |
| 20260509125652 | 15 | 109 | 1.6 | 4.8 | 0.00 | 0.00 | 0.00 | 60 | 1010.3 |
| 20260509125149 | 13 | 132 | 0.0 | 3.2 | 0.00 | 0.00 | 0.00 | 60 | 1009.9 |
| 20260509124646 | 13 | 168 | 3.2 | 4.8 | 0.00 | 0.00 | 0.00 | 60 | 1009.7 |
| 20260509124142 | 13 | 243 | 0.0 | 3.2 | 0.00 | 0.00 | 0.00 | 61 | 1009.6 |
| 20260509123640 | 13 | 232 | 3.2 | 4.8 | 0.00 | 0.00 | 0.00 | 62 | 1009.5 |
| 20260509123137 | 13 | 251 | 4.8 | 6.4 | 0.00 | 0.00 | 0.00 | 61 | 1009.2 |